Flag for Germany Weather past 2 weeks in Leipzig, Saxony, Germany

Now
36 °F

Fog.


Feels Like: 32 °F
Forecast: 46 / 67 °F
Wind: 5 mph from Northwest

Location: Leipzig-Schkeuditz


UV Index: 3 (Moderate)

Visibility: 0 mi


Pressure: 30.01 "Hg

Humidity: 100%

Dew point: 36 °F

Location of LeipzigLocation

Historic Weather in Leipzig

°F

Leipzig temperature yesterday

Maximum temperature yesterday: 50 °F (at 2:50 PM)
Minimum temperature yesterday: 37 °F (at 10:50 PM)
Average temperature yesterday: 44 °F

Past Weeks' High & Low Weather Summary

 TemperatureHumidityPressure
High70 °F (Apr 7, 3:50 PM)100% (Apr 4, 3:20 AM)30.45 "Hg (Apr 4, 3:20 AM)
Low34 °F (Apr 17, 5:20 AM)33% (Apr 17, 1:20 PM)29.74 "Hg (Apr 4, 2:20 AM)
Average50 °F75%30.03 "Hg
* Reported Apr 4 2:20 AM — Apr 19 2:20 AM, Leipzig, Weather by CustomWeather, © 2014

Note: Actual official high and low records may vary slightly from our data, if they occured in-between our weather recording intervals... More about our weather records

Advertising

Historic Weather Conditions — Data for Previous 24 hours

 ConditionsComfort  
Time TempWeatherWind HumidityBarometerVisibility
2:20 AM
Apr 19
36 °FFog.3 mph100%30.01 "Hg4 mi
1:50 AM36 °FFog.5 mph100%30.01 "HgN/A
1:20 AM36 °FFog.5 mph100%30.01 "HgN/A
12:50 AM37 °FFog.5 mph100%29.98 "HgN/A
12:20 AM36 °FFog.3 mph100%29.98 "HgN/A
11:50 PM
Apr 18
37 °FFog.5 mph100%29.98 "HgN/A
11:20 PM37 °FFog.2 mph100%29.98 "HgN/A
10:50 PM37 °FFog.2 mph100%29.95 "HgN/A
10:20 PM39 °FFog.3 mph93%29.95 "HgN/A
9:50 PM39 °FFog.3 mph100%29.95 "HgN/A
9:20 PM41 °FFog.3 mph93%29.92 "HgN/A
8:50 PM41 °FFog.5 mph93%29.92 "HgN/A
8:20 PM43 °FPassing clouds.5 mph87%29.92 "HgN/A
7:50 PM43 °FPassing clouds.6 mph93%29.89 "HgN/A
7:20 PM45 °FPassing clouds.8 mph87%29.89 "HgN/A
6:50 PM45 °FScattered clouds.9 mph87%29.89 "HgN/A
6:20 PM46 °FScattered showers. Scattered clouds.9 mph82%29.89 "HgN/A
5:50 PM46 °FScattered showers. Scattered clouds.14 mph82%29.86 "HgN/A
5:20 PM46 °FScattered clouds.10 mph82%29.86 "HgN/A
4:50 PM45 °FSprinkles. Partly sunny.7 mph87%29.86 "HgN/A
4:20 PM43 °FRain showers. Partly sunny.10 mph93%29.86 "Hg5 mi
3:50 PM45 °FScattered showers. Broken clouds.9 mph93%29.86 "HgN/A
3:20 PM43 °FSprinkles. Broken clouds.13 mph81%29.86 "Hg5 mi
2:50 PM50 °FScattered showers. Broken clouds.6 mph76%29.83 "HgN/A
2:20 PM46 °FScattered showers. Broken clouds.9 mph87%29.83 "HgN/A
1:50 PM46 °FScattered clouds.1 mph87%29.83 "HgN/A
1:20 PM45 °FSprinkles. Partly sunny.14 mph81%29.83 "HgN/A
12:50 PM45 °FScattered showers. Partly sunny.12 mph87%29.83 "HgN/A
12:20 PM48 °FBroken clouds.7 mph87%29.83 "HgN/A
11:50 AM45 °FMixture of precip. Broken clouds.14 mph87%29.83 "HgN/A
11:20 AM46 °FScattered showers. Broken clouds.12 mph82%29.83 "HgN/A
10:50 AM45 °FLight rain. Broken clouds.9 mph87%29.83 "HgN/A
10:20 AM45 °FBroken clouds.9 mph93%29.83 "HgN/A
9:50 AM45 °FBroken clouds.9 mph87%29.83 "HgN/A
9:20 AM43 °FLight rain. Partly sunny.7 mph87%29.83 "HgN/A
8:50 AM43 °FLight rain. Partly sunny.3 mph87%29.80 "HgN/A
8:20 AM43 °FLight rain. Partly sunny.6 mph87%29.80 "HgN/A
7:50 AM43 °FLight rain. Broken clouds.8 mph93%29.80 "HgN/A
7:20 AM43 °FRain. Partly sunny.17 mph87%29.80 "Hg3 mi
6:50 AM43 °FRain. Passing clouds.16 mph100%29.80 "Hg3 mi
6:20 AM45 °FLight rain. Passing clouds.6 mph100%29.77 "Hg4 mi
5:50 AM45 °FLight rain. Passing clouds.8 mph93%29.77 "HgN/A
5:20 AM45 °FLight rain. Passing clouds.6 mph93%29.80 "HgN/A
4:50 AM45 °FLight rain. Passing clouds.7 mph81%29.80 "HgN/A
4:20 AM45 °FLight rain. Passing clouds.7 mph76%29.80 "HgN/A
3:50 AM45 °FLight rain. Partly cloudy.9 mph71%29.80 "HgN/A
3:20 AM46 °FClear.9 mph57%29.80 "Hg10 mi
Weather by CustomWeather, © 2014

See weather overview